Weather Service Report


550 
ASUS41 KPHI 180110
RWRPHI

REGIONAL WEATHER ROUNDUP
NATIONAL WEATHER SERVICE MOUNT HOLLY NJ
900 PM EDT THU APR 17 2014

NOTE:  "FAIR" INDICATES FEW OR NO CLOUDS BELOW 12,000 FEET WITH NO
SIGNIFICANT WEATHER AND/OR OBSTRUCTIONS TO VISIBILITY.

 * = STATION DOES NOT REPORT PRECIPITATION (E.G. RAIN, SNOW, ETC.) 
        OR FOG.

NJZ015>026-180200-
SOUTHERN NEW JERSEY
  
CITY           SKY/WX    TMP DP  RH WIND       PRES   REMARKS
POMONA         PTCLDY    37  30  75 E9        30.63S WCI  30          
RIO GRANDE*    CLOUDY    41  28  60 NE13G18   30.62F                  
MILLVILLE      CLEAR     38  29  70 E8        30.62F WCI  32          
WRIGHTSTOWN    CLEAR     36  29  75 E5        30.62S WCI  32          
MOUNT HOLLY    CLEAR     38  29  70 E6        30.64S WCI  33          
TRENTON        CLEAR     39  28  64 SE9       30.63S WCI  33          

$$
NJZ001>014-180200-
NORTHERN NEW JERSEY
  
CITY           SKY/WX    TMP DP  RH WIND       PRES   REMARKS
SUSSEX         CLEAR     41  28  60 CALM      30.61S                  
ANDOVER*         N/A     39  29  67 CALM      30.61S                  
MORRISTOWN     CLEAR     39  30  70 S6        30.66R WCI  35          
NEWARK         PTCLDY    41  31  67 VRB7      30.65S                  
TETERBORO      CLEAR     44  31  60 S3        30.64R                  
CALDWELL       CLEAR     40  30  67 CALM      30.65R                  
SOMERVILLE     CLEAR     38  30  73 SE6       30.63S WCI  33          
ALLAIRE*       MOCLDY    39  28  65 E8        30.64S WCI  34          
TOMS RIVER*    PTCLDY    37  28  70 CALM      30.64F                  

$$
PAZ043-044-047-054-055-060>062-066>071-180200-
EASTERN PENNSYLVANIA
  
CITY           SKY/WX    TMP DP  RH WIND       PRES   REMARKS
PHILADELPHIA   PTCLDY    42  27  55 E12       30.63F                  
NORTH PHILA    CLEAR     41  28  60 SE10      30.65S                  
BLUE BELL      CLEAR     41  30  65 E5        30.61S                  
DOYLESTOWN     CLEAR     38  29  70 CALM      30.61S                  
QUAKERTOWN*    CLEAR     39  28  65 E7        30.61S WCI  34          
POTTSTOWN      CLEAR     40  28  62 VRB5      30.62S                  
LANCASTER      CLEAR     42  30  62 SE10      30.56R                  
COATESVILLE    CLEAR     41  27  56 SE8       30.59R                  
READING        CLEAR     44  27  51 SE9G17    30.58R                  
ALLENTOWN      CLEAR     42  27  55 E8        30.61R                  
MOUNT POCONO   CLEAR     35  25  66 SE9       30.53S WCI  28          
HAZLETON       CLEAR     39  25  56 SE8       30.56R WCI  34          
WILKES BARRE   CLEAR     43  25  49 S7G18     30.54R                  

$$
DEZALL-MDZ008-012-015-019-020-180200-
DELAWARE AND EASTERN MARYLAND
  
CITY           SKY/WX    TMP DP  RH WIND       PRES   REMARKS
WILMINGTON     CLEAR     42  29  59 E14       30.62S                  
DOVER          PTCLDY    40  31  70 NE6       30.58S                  
GEORGETOWN     CLOUDY    42  31  64 E14       30.61F                  
EASTON         PTCLDY    41  32  70 E9G17     30.63F                  
PATUXENT       MOCLDY    42  31  64 E14       30.58S                  
OCEAN CITY     CLOUDY    43  32  65 NE14G23   30.59F                  
WALLOPS ISLAND MOCLDY    44  34  67 E20       30.57F                  
CAMBRIDGE      CLOUDY    43  32  65 E9        30.59S                  
SALISBURY      CLOUDY    43  32  65 E14G20    30.59S                  

$$
PAZ001-021-NYZ056-072-MDZ011-DCZ001-180200-
OTHER NEARBY LOCATIONS
  
CITY           SKY/WX    TMP DP  RH WIND       PRES   REMARKS
HARRISBURG     PTCLDY    50  33  52 S9        30.55R                  
STATE COLLEGE  CLEAR     48  25  40 S12       30.47S                  
WILLIAMSPORT   CLEAR     50  26  39 VRB3G17   30.51R                  
BINGHAMTON     CLEAR     44  19  36 S10G17    30.48R                  
NEW YORK CITY  CLEAR     41  30  65 S5        30.67S                  
BALTIMORE      PTCLDY    44  32  62 SE13      30.57S                  
WASHINGTON DC  PTCLDY    47  32  56 E14       30.57S                  

$$

Return to Home page


Western Regional Climate Center, wrcc@dri.edu